Location: Hamilton
(37.7830°S, 175.2830°E)
Time: 16:45:55
(UTC+12:00)

Envisat - Pass Details

Date: 24 January 2019
Orbit: 764 x 766 km, 98.2° (Epoch: 20 April)

Event Time Altitude Azimuth Distance (km) Brightness Sun altitude
Rises 21:27:25 0° 175° (S) 3,268 6.7 -9.3°
Reaches altitude 10° 21:29:50 10° 182° (S) 2,334 6.0 -9.7°
Maximum altitude 21:34:40 43° 251° (WSW) 1,080 4.4 -10.5°
Drops below altitude 10° 21:39:27 10° 321° (NW) 2,305 5.5 -11.3°
Sets 21:41:50 0° 328° (NNW) 3,223 6.2 -11.6°
